COMSATBW-2

Last updated on Sat Aug 15 2026 00:02:58 GMT+0000 (Coordinated Universal Time)

1 36582U 10021B 26226.28539281 .00000072 00000+0 00000+0 0 9991 2 36582 0.0219 171.0892 0002278 348.8329 278.7133 1.00270846 59533
UTC large
Height (km)
Speed (km/s)
/
Latitude / Longitude
Inclination (degrees)
Orbital Period (minutes)
Azimuth
Elevation
Range (km)
Doppler Factor

Next 0 passes for location: London (51.5072 / 0.1276)

No passes found over London.
COMSATBW-2